sat.trackr.live / text

‹ back to catalog

STARLINK-5746

NORAD 56926 · 2023-083BC

PAYLOAD ACTIVE UNKNOWN

§ Identity

Operator
Country
US
Launch date
2023-06-12
Launch site
AFETR
Launch vehicle
Mass (kg)
RCS (m²)

Purposes: comms

External: N2YO · Heavens-Above · Gunter

§ Orbital elements

Epoch: 2026-05-24T21:36:31.562784Z

Period
94.27 min
Inclination
43.0031°
Eccentricity
0.0001111
Mean motion
15.27562098 rev/d
Perigee alt
482.3 km
Apogee alt
483.9 km
Semi-major
6,861.2 km
B*
-1.1782e-4
RAAN
0.2730°
Arg perigee
259.5017°
Mean anomaly
100.5709°
Rev number
16,345

§ Raw data

STARLINK-57461 56926U 23083BC  26144.90036531 -.00003501  00000+0 -11782-3 0  99902 56926  43.0031   0.2730 0001111 259.5017 100.5709 15.27562098163452

JSON: /api/v1/satellites/56926 · /tle

For live sub-satellite position, see the globe view (requires WebGL).

§ Visibility from observer

Set your observer location to see the next 7 days of passes ≥ 10°. The values pass through the URL so the page stays shareable.

No JS? Fill the form by hand. The geolocation button needs JavaScript.